Find Starlink 4307

NORAD ID: 53063 Int'l Des: 2022-077 Owner: SPXS Country: US Constellation: starlink operational
LEOCIRCULARRETROGRADESSO

Live Position

Loading 3D Globe...

About Starlink 4307

Description loading...

Upcoming Passes

Passes for default location (London). Set your location on the main map for personalized predictions.

Altitude History

Loading altitude history...

Two-Line Element Set

1 53063U 22077W 26124.45430911 -.00002794 00000-0 -18951-3 0 9998
2 53063 97.5367 306.0552 0001718 83.9856 276.1567 15.05665584 80954
Epoch: May 4, 2026 • Age: 10 hours

Current Status

Altitude 555.6 km
Velocity 7.58 km/s
Sub-Earth Point -13.27°S, 58°W
Launch Date Jul 11, 2022
Age 3.8 years
Type internet

Technical Details

Classification Payload
Mass 297.00 kg
Dry Mass 275.00 kg
Total Mass 297.00 kg
Length 0.20 m
Diameter 2.80 m
Span 9.00 m
Shape Box + pan
Manufacturer SPXS
Bus Type Starlink
Phase Status In Orbit
Owner/State SPXS/US

Most Searched